OpenBCM V1.07b12 (Linux)

Packet Radio Mailbox

DB0FHN

[JN59NK Nuernberg]

 Login: GUEST





  
UR7IWZ > KEPS     21.02.03 14:13l 109 Lines 2846 Bytes #999 (0) @ AMSAT
BID : ORB03051.M
Read: DB0FHN GUEST
Subj: Orbital Elements  03051.MISC
Path: DB0FHN<DB0ZWI<DB0HST<ON0DXC<WA7V<RZ6HXA<UR7IWZ
Sent: 030221/0820Z @:UR7IWZ.DON.UKR.EU #:64994 XFBB7.04 Bid:ORB03051.M
From: UR7IWZ@UR7IWZ.DON.UKR.EU
To  : KEPS@AMSAT


HR AMSAT ORBITAL ELEMENTS FOR MANNED AND MISCELLANEOUS SATELLITES
FROM WA5QGD FORT WORTH,TX February 20, 2003
SEND SUBSCRIBE/UNSUBSCRIBE TO majordomo@amsat.org ONLY
BID: ORB03051.M
TO ALL RADIO AMATEURS BT

Satellite: HUBBLE
Catalog number: 20580
Epoch time:      03051.08908193
Element set:     334
Inclination:       28.4695 deg
RA of node:        28.1966 deg
Eccentricity:    0.0003810
Arg of perigee:   281.7352 deg
Mean anomaly:     165.5973 deg
Mean motion:   14.97832982 rev/day
Decay rate:      2.312e-05 rev/day^2
Epoch rev:           50286
Checksum:              304

Satellite: UARS
Catalog number: 21701
Epoch time:      03051.69137839
Element set:     829
Inclination:       56.9818 deg
RA of node:        23.4593 deg
Eccentricity:    0.0004549
Arg of perigee:   114.7175 deg
Mean anomaly:     245.4334 deg
Mean motion:   15.02865755 rev/day
Decay rate:       9.00e-06 rev/day^2
Epoch rev:           62603
Checksum:              300

Satellite: PO-34
Catalog number: 25520
Epoch time:      03050.68001948
Element set:     639
Inclination:       28.4608 deg
RA of node:       216.4578 deg
Eccentricity:    0.0005432
Arg of perigee:     2.2865 deg
Mean anomaly:     357.7711 deg
Mean motion:   15.13896998 rev/day
Decay rate:      2.981e-05 rev/day^2
Epoch rev:           23775
Checksum:              324

Satellite: ISS
Catalog number: 25544
Epoch time:      03051.84760417
Element set:     711
Inclination:       51.6332 deg
RA of node:       244.5510 deg
Eccentricity:    0.0011989
Arg of perigee:   227.2100 deg
Mean anomaly:     326.1041 deg
Mean motion:   15.58587332 rev/day
Decay rate:     1.3945e-04 rev/day^2
Epoch rev:           24285
Checksum:              272

Satellite: WO-39
Catalog number: 26061
Epoch time:      03050.90123888
Element set:     769
Inclination:      100.2077 deg
RA of node:       108.2176 deg
Eccentricity:    0.0034657
Arg of perigee:   275.5297 deg
Mean anomaly:      84.1932 deg
Mean motion:   14.37828989 rev/day
Decay rate:       6.60e-06 rev/day^2
Epoch rev:           16072
Checksum:              324

Satellite: OO-38
Catalog number: 26063
Epoch time:      03051.71597537
Element set:     725
Inclination:      100.2128 deg
RA of node:       106.6864 deg
Eccentricity:    0.0036821
Arg of perigee:   281.2017 deg
Mean anomaly:      78.5023 deg
Mean motion:   14.35483018 rev/day
Decay rate:       1.88e-06 rev/day^2
Epoch rev:           16069
Checksum:              292

Satellite: NO-45
Catalog number: 26932
Epoch time:      03051.88242018
Element set:     401
Inclination:       67.0540 deg
RA of node:       249.3629 deg
Eccentricity:    0.0004780
Arg of perigee:   241.3724 deg
Mean anomaly:     118.6895 deg
Mean motion:   14.29295965 rev/day
Decay rate:       1.42e-06 rev/day^2
Epoch rev:            7270
Checksum:              300



Read previous mail | Read next mail


 18.09.2025 15:01:57lGo back Go up